Vorticity
6 5 3 5 9 1 11 9 11 -7 -1 14 2 4 3 13 7 6 -1 12 12 17 9 5 4 4 5 5 3 3 4 6 7 7 6 6 5 6 6 6 5 4 5 5 5 4 4 4 4
7 5 9 8 1 5 3 18 4 7 8 -3 5 10 16 8 -11 -1 7 11 8 19 7 5 4 4 4 4 3 3 4 6 6 7 7 6 6 6 6 5 5 4 5 5 5 4 4 4 4
8 3 3 1 13 -0 6 -6 15 -1 -2 2 7 8 15 6 17 -6 3 11 12 15 6 5 4 4 4 4 3 3 4 6 6 6 7 7 6 6 6 6 5 4 4 4 4 4 5 5 4
3 18 1 4 2 6 13 0 6 7 7 18 5 6 10 -7 14 -0 1 8 15 13 9 4 5 4 4 3 3 3 5 6 6 6 7 7 7 6 6 6 5 4 4 4 4 4 5 5 5
6 2 8 -0 6 -2 -9 3 6 6 7 7 15 -6 -0 18 2 3 2 7 13 5 16 6 5 5 4 4 3 4 5 7 7 6 7 8 7 7 7 7 6 5 5 4 4 5 6 5 5
2 9 -0 10 4 3 11 17 -6 -0 2 9 10 6 6 14 4 2 5 6 11 8 5 6 5 5 4 4 4 4 6 7 7 7 7 7 7 7 7 7 6 6 5 5 6 5 4 5 4
-1 5 6 8 8 3 11 -1 -7 8 5 6 5 9 7 6 7 -0 8 8 -4 13 9 7 6 5 4 4 4 4 5 6 6 6 6 6 6 6 5 5 5 5 5 6 5 5 5 4 8
11 8 3 5 3 7 1 15 11 7 5 -0 11 5 -1 9 9 7 -3 1 10 9 8 7 7 5 5 4 4 4 5 6 6 6 6 6 5 5 5 5 5 5 5 5 5 5 4 3 -1
13 3 10 8 0 2 -9 3 1 7 3 9 5 -16 15 3 12 3 -1 9 6 7 7 6 6 6 5 5 5 5 5 5 5 6 6 5 6 6 7 5 6 5 5 6 4 4 4 4 6
5 6 6 6 11 17 20 12 15 7 5 -1 7 -4 10 18 -1 7 -5 12 12 5 9 7 6 5 6 5 4 4 4 5 5 5 5 7 6 6 6 6 6 7 5 3 3 6 7 6 5
7 3 1 17 -2 3 13 8 12 -3 11 8 6 8 3 6 10 -1 1 6 12 10 7 10 6 6 5 5 4 4 4 4 5 5 5 3 6 6 6 6 8 6 5 3 9 10 3 6 7
11 5 8 3 9 12 5 15 15 -5 9 16 11 -6 13 11 7 6 -3 6 12 7 8 9 5 5 4 5 4 9 6 7 6 6 5 6 7 4 2 5 7 4 4 7 -9 4 7 8 9
2 13 6 6 10 8 17 11 15 4 -17 11 -3 14 18 9 5 19 -0 5 10 5 8 10 7 6 4 5 2 5 1 4 2 5 6 5 5 3 6 2 3 1 0 4 3 6 8 10 9
22 -1 18 5 19 2 16 7 -6 -4 3 7 13 3 14 29 -16 10 2 5 9 5 6 9 6 5 5 4 4 2 5 1 6 6 6 6 3 4 4 5 3 2 4 4 6 8 10 10 12
5 12 15 9 11 7 8 17 4 16 -9 10 1 2 18 15 -9 13 15 -1 9 6 7 10 7 5 6 4 5 5 5 4 6 7 6 6 6 5 5 6 7 7 8 7 9 10 11 14 16
19 2 5 15 3 13 8 5 3 16 13 -7 4 -1 6 10 18 9 8 -3 10 7 5 10 6 6 5 5 5 6 6 5 5 8 7 6 6 6 7 7 6 8 7 9 11 11 15 17 5
7 12 8 5 20 -1 12 3 19 18 -7 2 9 7 4 14 10 9 7 4 9 2 13 13 6 7 5 5 6 6 5 6 9 6 5 6 7 8 8 7 7 8 9 11 12 18 11 2 2
-2 10 6 9 13 18 7 -5 23 13 16 -5 4 7 4 8 16 5 11 0 10 -0 23 1 4 3 5 6 7 6 5 9 4 5 6 7 7 7 7 8 9 8 12 13 19 5 -5 2 -4
5 6 6 8 18 11 11 12 -15 4 11 11 2 -3 10 9 7 11 11 2 1 10 11 10 7 7 6 6 7 4 8 5 6 6 7 7 8 8 9 9 9 10 13 16 9 -7 7 -5 12
11 11 9 17 18 14 9 10 15 6 4 7 6 -0 2 8 10 18 6 8 4 14 7 10 5 5 7 7 4 5 5 6 6 7 9 11 11 10 9 9 10 13 9 -4 -2 7 3 13 2
16 11 7 12 4 25 8 24 -1 17 13 6 21 11 2 6 7 -7 -1 6 8 12 4 -1 6 9 8 5 1 4 4 8 7 9 5 3 7 4 11 13 11 -5 -9 -6 14 5 4 11 11
11 16 4 14 1 -0 9 41 18 11 12 13 -6 9 11 7 5 7 8 6 17 15 -2 -21 6 9 6 4 6 3 9 9 10 4 3 4 7 9 13 -2 -4 1 4 18 22 15 7 1 6
15 14 12 8 16 8 16 -20 37 12 1 10 -1 12 10 -7 6 2 2 5 22 -6 38 26 16 6 3 5 4 8 9 8 6 4 5 6 9 5 -4 -3 -0 9 18 7 10 8 7 7 9
17 7 13 -2 5 10 6 -26 12 14 3 9 7 27 4 13 8 5 11 7 14 -7 5 1 9 3 7 6 7 7 8 10 5 1 2 11 11 9 6 0 11 9 7 9 7 8 9 7 7
18 2 31 17 26 -2 15 16 -0 25 29 8 14 4 7 15 2 4 15 4 16 -1 2 7 6 8 8 6 8 9 11 7 4 5 14 17 12 10 10 12 7 7 9 11 10 8 8 7 9
22 12 -32 8 18 30 21 6 12 -7 14 17 14 12 12 -4 5 13 16 4 14 6 -2 4 8 8 4 5 7 11 9 5 6 10 10 12 14 14 11 7 5 7 8 10 11 9 8 10 10
44 -8 11 3 4 -3 27 18 -12 -12 57 21 16 11 10 2 7 -4 2 7 15 8 10 7 7 3 3 4 7 9 7 6 7 6 6 7 7 6 5 5 7 8 8 10 10 10 10 11 10
16 8 -11 4 23 13 41 32 13 25 -7 21 14 14 9 17 27 10 4 7 19 7 12 11 7 5 2 4 4 5 6 6 4 4 4 4 4 4 4 5 6 7 9 9 11 10 10 11 9
25 15 -8 -0 -4 0 13 30 -7 32 7 8 18 18 1 11 23 7 8 9 24 9 7 11 5 5 3 4 3 5 5 6 4 3 4 4 4 4 4 5 6 7 9 9 10 9 10 10 9
6 24 9 -17 10 34 5 39 36 50 27 9 23 19 3 15 21 15 12 2 17 4 11 14 6 3 3 4 3 4 6 5 5 5 5 5 5 5 6 7 6 8 8 8 10 9 10 10 9
Height
3149 3150 3152 3156 3162 3155 3149 3147 3145 3147 3150 3149 3151 3153 3153 3149 3151 3156 3152 3152 3152 3152 3154 3156 3158 3160 3160 3161 3162 3163 3164 3165 3166 3167 3169 3171 3171 3172 3173 3173 3173 3174 3175 3176 3177 3177 3177 3177 3177
3147 3148 3150 3153 3155 3147 3143 3145 3144 3147 3148 3147 3149 3150 3151 3151 3150 3151 3152 3151 3151 3150 3153 3155 3158 3160 3160 3161 3163 3164 3165 3166 3166 3168 3170 3171 3173 3173 3174 3174 3175 3176 3177 3178 3179 3178 3179 3179 3179
3144 3145 3149 3150 3146 3143 3141 3141 3142 3145 3145 3147 3149 3147 3151 3147 3148 3150 3151 3151 3150 3150 3152 3155 3157 3159 3160 3162 3163 3164 3165 3167 3168 3169 3171 3172 3173 3174 3175 3176 3177 3177 3179 3180 3180 3181 3181 3181 3180
3141 3144 3145 3141 3137 3138 3139 3139 3140 3143 3144 3143 3147 3148 3145 3144 3146 3148 3150 3150 3150 3150 3150 3154 3157 3159 3161 3162 3163 3165 3166 3168 3169 3170 3171 3173 3174 3175 3176 3177 3179 3179 3180 3181 3182 3182 3182 3181 3181
3135 3138 3137 3133 3132 3136 3136 3140 3140 3143 3142 3142 3144 3146 3142 3143 3145 3147 3149 3149 3150 3150 3152 3154 3157 3159 3161 3162 3164 3165 3167 3168 3169 3171 3172 3174 3176 3177 3178 3179 3180 3182 3182 3182 3183 3183 3183 3183 3182
3128 3133 3130 3125 3127 3130 3133 3133 3139 3141 3142 3140 3139 3144 3139 3140 3143 3145 3147 3148 3150 3149 3151 3154 3156 3159 3161 3163 3164 3166 3168 3169 3170 3172 3174 3175 3177 3178 3179 3180 3181 3182 3183 3184 3184 3183 3183 3183 3182
3121 3126 3121 3122 3122 3124 3127 3130 3135 3138 3139 3139 3140 3142 3138 3138 3141 3142 3145 3147 3146 3150 3151 3154 3157 3160 3162 3163 3164 3165 3167 3169 3170 3172 3174 3175 3177 3178 3179 3180 3181 3182 3183 3183 3184 3183 3183 3183 3182
3117 3120 3117 3116 3115 3116 3123 3124 3130 3134 3135 3138 3138 3137 3136 3136 3138 3140 3143 3144 3146 3148 3151 3154 3157 3160 3162 3163 3164 3166 3167 3169 3170 3172 3173 3174 3176 3177 3178 3179 3180 3181 3182 3183 3183 3183 3183 3183 3183
3113 3112 3106 3108 3112 3114 3120 3119 3125 3130 3132 3133 3135 3136 3133 3133 3135 3138 3141 3142 3144 3147 3150 3153 3157 3159 3161 3163 3164 3166 3167 3169 3171 3172 3174 3175 3176 3178 3179 3180 3181 3182 3182 3183 3184 3184 3183 3183 3182
3103 3100 3097 3106 3109 3110 3113 3115 3120 3125 3126 3129 3131 3129 3127 3130 3133 3136 3139 3140 3142 3145 3149 3152 3155 3158 3160 3162 3163 3165 3166 3168 3170 3172 3174 3176 3178 3179 3180 3181 3182 3182 3183 3184 3184 3183 3183 3182 3181
3094 3086 3099 3101 3104 3107 3108 3110 3115 3118 3120 3124 3125 3124 3124 3127 3130 3134 3137 3140 3142 3145 3148 3151 3155 3157 3159 3161 3163 3164 3166 3168 3170 3173 3175 3176 3177 3179 3181 3181 3182 3183 3183 3184 3183 3182 3181 3181 3180
3087 3088 3092 3095 3099 3101 3102 3106 3108 3113 3117 3120 3121 3118 3120 3124 3128 3132 3136 3138 3141 3143 3146 3150 3152 3155 3157 3159 3161 3163 3167 3168 3170 3171 3174 3176 3178 3179 3181 3182 3182 3183 3183 3184 3184 3183 3183 3182 3181
3079 3083 3086 3089 3091 3094 3098 3099 3102 3108 3113 3112 3112 3114 3117 3121 3124 3128 3132 3136 3138 3142 3144 3148 3151 3153 3155 3158 3160 3163 3167 3168 3171 3172 3174 3176 3177 3179 3180 3181 3182 3183 3183 3183 3184 3183 3182 3182 3181
3076 3078 3078 3081 3083 3088 3090 3094 3100 3102 3108 3106 3109 3110 3112 3118 3122 3127 3129 3132 3134 3138 3141 3145 3148 3152 3154 3156 3159 3162 3164 3166 3169 3171 3174 3176 3177 3179 3180 3181 3182 3182 3182 3183 3182 3182 3182 3181 3180
3069 3071 3070 3071 3076 3079 3086 3089 3085 3095 3102 3101 3104 3107 3110 3113 3116 3125 3127 3128 3131 3135 3138 3142 3145 3148 3153 3155 3158 3161 3162 3165 3167 3169 3172 3175 3176 3178 3179 3180 3181 3181 3181 3181 3181 3180 3180 3180 3180
3062 3064 3061 3062 3069 3072 3078 3071 3079 3086 3092 3098 3100 3103 3105 3107 3112 3117 3122 3124 3129 3132 3134 3140 3143 3147 3150 3153 3156 3159 3161 3163 3166 3168 3171 3173 3175 3176 3177 3178 3178 3179 3179 3179 3179 3179 3179 3180 3180
3053 3048 3050 3056 3059 3065 3064 3066 3074 3078 3084 3090 3095 3099 3101 3104 3106 3111 3115 3119 3124 3128 3132 3136 3140 3145 3148 3152 3155 3157 3160 3162 3164 3167 3169 3172 3173 3175 3176 3176 3175 3176 3176 3177 3177 3178 3179 3180 3180
3040 3040 3043 3045 3050 3055 3056 3061 3068 3072 3078 3082 3089 3093 3099 3098 3102 3104 3110 3114 3120 3124 3128 3133 3137 3141 3146 3150 3153 3155 3158 3161 3163 3165 3168 3169 3171 3172 3173 3174 3174 3174 3175 3175 3177 3179 3180 3180 3180
3038 3036 3036 3039 3045 3048 3050 3056 3061 3065 3071 3076 3079 3087 3092 3096 3097 3100 3107 3111 3115 3119 3124 3129 3133 3138 3144 3148 3151 3153 3157 3159 3162 3164 3166 3168 3169 3170 3171 3172 3172 3173 3174 3176 3177 3179 3179 3179 3178
3032 3031 3028 3032 3035 3040 3045 3048 3053 3059 3063 3068 3075 3082 3088 3094 3092 3095 3101 3105 3111 3117 3120 3124 3130 3136 3141 3145 3148 3151 3154 3157 3160 3162 3164 3166 3167 3168 3169 3171 3172 3173 3174 3176 3177 3178 3178 3178 3178
3023 3025 3025 3025 3030 3035 3041 3043 3047 3051 3057 3062 3067 3075 3083 3088 3088 3090 3095 3101 3106 3110 3115 3120 3126 3134 3139 3141 3144 3148 3152 3155 3157 3160 3162 3165 3166 3167 3169 3170 3172 3173 3175 3175 3176 3176 3176 3176 3177
3016 3020 3022 3021 3023 3026 3035 3030 3034 3042 3048 3053 3058 3064 3074 3080 3078 3085 3090 3097 3101 3106 3111 3116 3115 3130 3134 3138 3142 3146 3150 3153 3155 3158 3161 3163 3164 3166 3168 3169 3171 3172 3173 3173 3173 3174 3175 3175 3175
3008 3015 3018 3018 3018 3023 3025 3028 3020 3034 3040 3043 3050 3056 3063 3075 3070 3077 3087 3094 3098 3104 3107 3111 3111 3125 3130 3135 3139 3143 3147 3149 3153 3156 3159 3161 3163 3165 3167 3168 3169 3170 3170 3172 3172 3172 3172 3173 3174
3008 3011 3014 3014 3014 3012 3015 3019 3016 3016 3024 3035 3043 3049 3055 3064 3065 3073 3082 3089 3095 3102 3105 3107 3114 3121 3127 3132 3136 3140 3143 3148 3151 3154 3157 3158 3160 3163 3165 3166 3168 3169 3169 3170 3170 3170 3171 3171 3172
3000 3002 3003 3007 3005 3003 3008 3011 3007 3013 3020 3029 3035 3044 3051 3045 3057 3066 3075 3083 3091 3097 3102 3106 3112 3118 3124 3129 3133 3137 3141 3145 3149 3152 3154 3155 3158 3160 3163 3165 3166 3167 3168 3168 3169 3169 3170 3170 3171
2989 2993 2992 2996 2998 2999 3000 2998 3004 3009 3012 3023 3033 3041 3049 3047 3050 3060 3071 3079 3085 3093 3100 3103 3109 3115 3121 3126 3130 3135 3139 3143 3147 3149 3152 3154 3156 3159 3161 3163 3164 3166 3166 3166 3167 3168 3168 3169 3170
2983 2986 2993 2998 2996 2997 2999 3000 3003 3007 3010 3017 3026 3035 3040 3041 3046 3054 3065 3073 3080 3087 3094 3100 3106 3112 3118 3123 3128 3132 3137 3141 3145 3148 3151 3153 3155 3157 3160 3162 3163 3163 3164 3164 3165 3167 3167 3168 3169
2979 2987 2987 2988 2991 2991 2988 2990 2997 3002 3008 3013 3021 3027 3033 3038 3042 3050 3058 3067 3074 3084 3091 3097 3103 3109 3114 3120 3125 3130 3135 3138 3142 3146 3149 3152 3154 3156 3158 3160 3161 3161 3162 3162 3163 3164 3166 3166 3167
2976 2980 2984 2987 2986 2981 2982 2988 2996 2999 3005 3011 3017 3024 3028 3035 3037 3047 3056 3064 3072 3080 3086 3093 3099 3105 3112 3117 3122 3127 3132 3136 3139 3143 3147 3149 3152 3154 3156 3158 3158 3158 3160 3160 3161 3162 3164 3164 3165
2974 2976 2981 2984 2986 2983 2982 2988 2992 2995 3003 3009 3015 3021 3025 3032 3034 3045 3053 3060 3068 3077 3083 3089 3095 3103 3110 3115 3120 3124 3129 3133 3136 3140 3144 3147 3149 3151 3153 3155 3155 3156 3157 3158 3159 3160 3161 3162 3163